Time,TemperatureF,DewpointF,PressureIn,WindDirection,WindDirectionDegrees,WindSpeedMPH,WindSpeedGustMPH,Humidity,HourlyPrecipIn,Conditions,Clouds,dailyrainin,SolarRadiationWatts/m^2,SoftwareType,DateUTC
2013-12-14 00:01:00,36.2,33.5,30.33,South,180,0.0,0.0,90,0.00,CLR,OVC,0.00,0.0,WeatherDisplay:10.37,2013-12-14 05:01:00,
2013-12-14 00:06:00,36.3,33.4,30.33,South,180,0.0,0.0,89,0.00,CLR,OVC,0.00,0.0,WeatherDisplay:10.37,2013-12-14 05:06:00,
2013-12-14 00:11:00,36.4,33.5,30.33,South,180,0.0,0.0,89,0.00,CLR,OVC,0.00,0.0,WeatherDisplay:10.37,2013-12-14 05:11:00,
2013-12-14 00:16:00,36.5,33.6,30.33,South,180,0.0,0.0,89,0.00,CLR,OVC,0.00,0.0,WeatherDisplay:10.37,2013-12-14 05:16:00,
2013-12-14 00:21:00,36.6,33.7,30.33,South,180,0.0,0.0,89,0.00,CLR,OVC,0.00,0.0,WeatherDisplay:10.37,2013-12-14 05:21:00,
2013-12-14 00:26:00,36.7,33.8,30.33,South,180,0.0,0.0,89,0.00,CLR,OVC,0.00,0.0,WeatherDisplay:10.37,2013-12-14 05:26:00,
2013-12-14 00:31:00,36.7,33.8,30.32,South,180,0.0,0.0,89,0.00,CLR,OVC,0.00,0.0,WeatherDisplay:10.37,2013-12-14 05:31:00,
2013-12-14 00:36:00,36.7,33.5,30.32,South,180,0.0,0.0,88,0.00,CLR,OVC,0.00,0.0,WeatherDisplay:10.37,2013-12-14 05:36:00,
2013-12-14 00:41:00,36.7,33.5,30.32,South,180,0.0,0.0,88,0.00,CLR,OVC,0.00,0.0,WeatherDisplay:10.37,2013-12-14 05:41:00,
2013-12-14 00:46:00,36.7,33.5,30.32,South,180,0.0,0.0,88,0.00,CLR,OVC,0.00,0.0,WeatherDisplay:10.37,2013-12-14 05:46:00,
2013-12-14 00:51:00,36.7,33.5,30.31,South,180,0.0,1.1,88,0.00,CLR,OVC,0.00,0.0,WeatherDisplay:10.37,2013-12-14 05:51:00,
2013-12-14 00:56:00,36.7,33.5,30.31,South,180,0.0,0.0,88,0.00,CLR,OVC,0.00,0.0,WeatherDisplay:10.37,2013-12-14 05:56:00,
2013-12-14 01:01:00,36.8,33.6,30.31,South,180,0.0,0.0,88,0.00,CLR,OVC,0.00,0.0,WeatherDisplay:10.37,2013-12-14 06:01:00,
2013-12-14 01:06:00,36.8,33.6,30.31,South,180,0.0,0.0,88,0.00,CLR,OVC,0.00,0.0,WeatherDisplay:10.37,2013-12-14 06:06:00,
2013-12-14 01:11:00,36.9,33.7,30.31,South,180,0.0,0.0,88,0.00,CLR,OVC,0.00,0.0,WeatherDisplay:10.37,2013-12-14 06:11:00,
2013-12-14 01:16:00,37.0,33.5,30.31,WNW,286,0.0,1.1,87,0.00,CLR,OVC,0.00,0.0,WeatherDisplay:10.37,2013-12-14 06:16:00,
2013-12-14 01:21:00,37.1,33.3,30.31,WNW,290,0.1,1.1,86,0.00,CLR,OVC,0.00,0.0,WeatherDisplay:10.37,2013-12-14 06:21:00,
2013-12-14 01:26:00,37.3,33.5,30.31,WNW,290,0.0,0.0,86,0.00,CLR,OVC,0.00,0.0,WeatherDisplay:10.37,2013-12-14 06:26:00,
2013-12-14 01:31:00,37.3,33.5,30.31,WNW,290,0.0,0.0,86,0.00,CLR,OVC,0.00,0.0,WeatherDisplay:10.37,2013-12-14 06:31:00,
2013-12-14 01:36:00,37.4,33.9,30.31,WNW,290,0.0,0.0,87,0.00,CLR,OVC,0.00,0.0,WeatherDisplay:10.37,2013-12-14 06:36:00,
2013-12-14 01:41:00,37.4,33.6,30.31,WNW,290,0.0,0.0,86,0.00,CLR,OVC,0.00,0.0,WeatherDisplay:10.37,2013-12-14 06:41:00,
2013-12-14 01:46:00,37.5,33.7,30.31,WNW,290,0.0,0.0,86,0.00,CLR,OVC,0.00,0.0,WeatherDisplay:10.37,2013-12-14 06:46:00,
2013-12-14 01:51:00,37.5,33.7,30.31,WNW,290,0.0,0.0,86,0.00,CLR,OVC,0.00,0.0,WeatherDisplay:10.37,2013-12-14 06:51:00,
2013-12-14 01:56:00,37.7,33.9,30.31,WNW,292,0.1,1.1,86,0.00,CLR,OVC,0.00,0.0,WeatherDisplay:10.37,2013-12-14 06:56:00,
2013-12-14 02:01:00,38.0,34.2,30.30,WNW,296,0.0,1.1,86,0.00,CLR,OVC,0.00,0.0,WeatherDisplay:10.37,2013-12-14 07:01:00,
2013-12-14 02:06:00,38.4,34.3,30.30,WNW,297,0.0,1.1,85,0.00,CLR,OVC,0.00,0.0,WeatherDisplay:10.37,2013-12-14 07:06:00,
2013-12-14 02:11:00,38.6,34.2,30.30,NNW,335,0.3,1.1,84,0.00,CLR,OVC,0.00,0.0,WeatherDisplay:10.37,2013-12-14 07:11:00,
2013-12-14 02:16:00,38.9,34.5,30.30,NNW,337,0.1,1.1,84,0.00,CLR,OVC,0.00,0.0,WeatherDisplay:10.37,2013-12-14 07:16:00,
2013-12-14 02:21:00,39.1,34.7,30.30,NNW,337,0.2,1.1,84,0.00,CLR,OVC,0.00,0.0,WeatherDisplay:10.37,2013-12-14 07:21:00,
2013-12-14 02:27:00,39.2,34.8,30.30,NNW,338,0.0,1.1,84,0.00,CLR,OVC,0.00,0.0,WeatherDisplay:10.37,2013-12-14 07:27:00,
2013-12-14 02:32:00,39.4,35.0,30.30,NNW,341,0.1,1.1,84,0.00,CLR,OVC,0.00,0.0,WeatherDisplay:10.37,2013-12-14 07:32:00,
2013-12-14 02:37:00,39.7,35.3,30.29,NNW,348,0.1,1.1,84,0.00,CLR,OVC,0.00,0.0,WeatherDisplay:10.37,2013-12-14 07:37:00,
2013-12-14 02:42:00,39.9,35.5,30.30,NNW,348,0.0,0.0,84,0.00,CLR,OVC,0.00,0.0,WeatherDisplay:10.37,2013-12-14 07:42:00,
2013-12-14 02:47:00,40.2,35.4,30.30,North,350,0.0,0.0,83,0.00,CLR,OVC,0.00,0.0,WeatherDisplay:10.37,2013-12-14 07:47:00,
2013-12-14 02:52:00,40.5,35.7,30.30,North,350,0.0,0.0,83,0.00,CLR,OVC,0.00,0.0,WeatherDisplay:10.37,2013-12-14 07:52:00,
2013-12-14 02:57:00,40.7,35.9,30.30,North,350,0.0,0.0,83,0.00,CLR,OVC,0.00,0.0,WeatherDisplay:10.37,2013-12-14 07:57:00,
2013-12-14 03:02:00,40.9,36.1,30.30,North,351,0.0,1.1,83,0.00,CLR,OVC,0.00,0.0,WeatherDisplay:10.37,2013-12-14 08:02:00,
2013-12-14 03:07:00,41.0,36.2,30.30,North,351,0.0,0.0,83,0.00,CLR,OVC,0.00,0.0,WeatherDisplay:10.37,2013-12-14 08:07:00,
2013-12-14 03:12:00,41.0,36.2,30.30,North,355,0.0,0.0,83,0.00,CLR,OVC,0.00,0.0,WeatherDisplay:10.37,2013-12-14 08:12:00,
2013-12-14 03:17:00,41.0,36.2,30.30,North,355,0.0,0.0,83,0.00,CLR,OVC,0.00,0.0,WeatherDisplay:10.37,2013-12-14 08:17:00,
2013-12-14 03:22:00,41.0,36.2,30.29,North,355,0.0,0.0,83,0.00,CLR,OVC,0.00,0.0,WeatherDisplay:10.37,2013-12-14 08:22:00,
2013-12-14 03:27:00,40.9,36.4,30.29,North,355,0.0,0.0,84,0.00,CLR,OVC,0.00,0.0,WeatherDisplay:10.37,2013-12-14 08:27:00,
2013-12-14 03:32:00,40.7,36.2,30.29,North,355,0.0,0.0,84,0.00,CLR,OVC,0.00,0.0,WeatherDisplay:10.37,2013-12-14 08:32:00,
2013-12-14 03:37:00,40.5,36.3,30.29,North,355,0.0,0.0,85,0.00,CLR,OVC,0.00,0.0,WeatherDisplay:10.37,2013-12-14 08:37:00,
2013-12-14 03:42:00,40.5,36.3,30.29,North,355,0.0,0.0,85,0.00,CLR,OVC,0.00,0.0,WeatherDisplay:10.37,2013-12-14 08:42:00,
2013-12-14 03:47:00,40.4,36.2,30.29,North,355,0.0,0.0,85,0.00,CLR,OVC,0.00,0.0,WeatherDisplay:10.37,2013-12-14 08:47:00,
2013-12-14 03:52:00,40.5,36.3,30.29,North,355,0.0,0.0,85,0.00,CLR,OVC,0.00,0.0,WeatherDisplay:10.37,2013-12-14 08:52:00,
2013-12-14 03:57:00,40.7,36.2,30.29,North,355,0.0,0.0,84,0.00,CLR,OVC,0.00,0.0,WeatherDisplay:10.37,2013-12-14 08:57:00,
2013-12-14 04:02:00,41.0,36.5,30.29,NE,39,0.0,0.0,84,0.00,CLR,OVC,0.00,0.0,WeatherDisplay:10.37,2013-12-14 09:02:00,
2013-12-14 04:07:00,41.3,36.5,30.29,NE,39,0.0,0.0,83,0.00,CLR,OVC,0.00,0.0,WeatherDisplay:10.37,2013-12-14 09:07:00,
2013-12-14 04:12:00,41.6,36.8,30.29,NE,39,0.0,0.0,83,0.00,CLR,OVC,0.00,0.0,WeatherDisplay:10.37,2013-12-14 09:12:00,
2013-12-14 04:17:00,41.9,37.1,30.28,NE,37,0.0,0.0,83,0.00,CLR,OVC,0.00,0.0,WeatherDisplay:10.37,2013-12-14 09:17:00,
2013-12-14 04:22:00,42.2,37.1,30.28,NE,38,0.3,1.1,82,0.00,CLR,OVC,0.00,0.0,WeatherDisplay:10.37,2013-12-14 09:22:00,
2013-12-14 04:27:00,42.9,37.5,30.28,NE,44,0.0,1.1,81,0.00,CLR,OVC,0.00,0.0,WeatherDisplay:10.37,2013-12-14 09:27:00,
2013-12-14 04:32:00,43.8,37.7,30.28,NE,42,0.0,1.1,79,0.00,CLR,OVC,0.00,0.0,WeatherDisplay:10.37,2013-12-14 09:32:00,
2013-12-14 04:37:00,44.2,38.1,30.28,NE,42,0.0,0.0,79,0.00,CLR,OVC,0.00,0.0,WeatherDisplay:10.37,2013-12-14 09:37:00,
2013-12-14 04:42:00,44.5,38.4,30.28,NE,42,0.0,0.0,79,0.00,CLR,OVC,0.00,0.0,WeatherDisplay:10.37,2013-12-14 09:42:00,
2013-12-14 04:47:00,44.7,38.9,30.28,NE,42,0.0,0.0,80,0.00,CLR,OVC,0.00,0.0,WeatherDisplay:10.37,2013-12-14 09:47:00,
2013-12-14 04:52:00,44.9,39.1,30.28,NE,41,0.0,0.0,80,0.00,CLR,OVC,0.00,0.0,WeatherDisplay:10.37,2013-12-14 09:52:00,
2013-12-14 04:57:00,45.0,39.2,30.28,NE,41,0.0,0.0,80,0.00,CLR,OVC,0.00,0.0,WeatherDisplay:10.37,2013-12-14 09:57:00,
2013-12-14 05:02:00,45.2,39.7,30.28,NE,40,0.0,0.0,81,0.00,CLR,OVC,0.00,0.0,WeatherDisplay:10.37,2013-12-14 10:02:00,
2013-12-14 05:07:00,45.3,39.8,30.28,NE,40,0.0,0.0,81,0.00,CLR,OVC,0.00,0.0,WeatherDisplay:10.37,2013-12-14 10:07:00,
2013-12-14 05:12:00,45.3,39.8,30.28,NE,40,0.0,0.0,81,0.00,CLR,OVC,0.00,0.0,WeatherDisplay:10.37,2013-12-14 10:12:00,
2013-12-14 05:17:00,45.4,40.2,30.29,NE,40,0.0,0.0,82,0.00,CLR,OVC,0.00,0.0,WeatherDisplay:10.37,2013-12-14 10:17:00,
2013-12-14 05:22:00,45.4,40.2,30.29,NE,40,0.0,0.0,82,0.00,CLR,OVC,0.00,0.0,WeatherDisplay:10.37,2013-12-14 10:22:00,
2013-12-14 05:27:00,45.5,40.3,30.28,NE,40,0.0,0.0,82,0.00,CLR,OVC,0.00,0.0,WeatherDisplay:10.37,2013-12-14 10:27:00,
2013-12-14 05:32:00,45.7,40.5,30.28,NE,38,0.0,0.0,82,0.00,CLR,OVC,0.00,0.0,WeatherDisplay:10.37,2013-12-14 10:32:00,
2013-12-14 05:37:00,45.8,40.6,30.27,NE,38,0.0,0.0,82,0.00,CLR,OVC,0.00,0.0,WeatherDisplay:10.37,2013-12-14 10:37:00,
2013-12-14 05:42:00,46.0,41.1,30.28,NNE,16,0.0,1.1,83,0.00,CLR,OVC,0.00,0.0,WeatherDisplay:10.37,2013-12-14 10:42:00,
2013-12-14 05:47:00,46.2,41.3,30.28,North,11,0.0,0.0,83,0.00,CLR,OVC,0.00,0.0,WeatherDisplay:10.37,2013-12-14 10:47:00,
2013-12-14 05:52:00,46.4,41.8,30.27,NNE,18,0.0,0.0,84,0.00,CLR,OVC,0.00,0.0,WeatherDisplay:10.37,2013-12-14 10:52:00,
2013-12-14 05:57:00,46.5,41.6,30.28,North,5,0.0,0.0,83,0.00,CLR,OVC,0.00,0.0,WeatherDisplay:10.37,2013-12-14 10:57:00,
2013-12-14 06:02:00,46.6,42.3,30.27,North,5,0.0,0.0,85,0.00,CLR,OVC,0.00,0.0,WeatherDisplay:10.37,2013-12-14 11:02:00,
2013-12-14 06:07:00,46.7,42.4,30.27,North,9,0.0,0.0,85,0.00,CLR,OVC,0.00,0.0,WeatherDisplay:10.37,2013-12-14 11:07:00,
2013-12-14 06:12:00,46.6,42.3,30.28,North,9,0.1,0.0,85,0.00,CLR,OVC,0.00,0.0,WeatherDisplay:10.37,2013-12-14 11:12:00,
2013-12-14 06:17:00,46.5,42.5,30.27,North,9,0.1,1.1,86,0.00,CLR,OVC,0.00,0.0,WeatherDisplay:10.37,2013-12-14 11:17:00,
2013-12-14 06:22:00,46.7,43.0,30.27,NNE,29,0.0,1.1,87,0.00,CLR,OVC,0.00,0.0,WeatherDisplay:10.37,2013-12-14 11:22:00,
2013-12-14 06:27:00,46.7,43.0,30.27,NNE,28,0.0,0.0,87,0.00,CLR,OVC,0.00,0.0,WeatherDisplay:10.37,2013-12-14 11:27:00,
2013-12-14 06:32:00,46.7,43.0,30.27,NNE,28,0.1,1.1,87,0.00,CLR,OVC,0.00,0.0,WeatherDisplay:10.37,2013-12-14 11:32:00,
2013-12-14 06:37:00,46.7,43.3,30.26,NNE,30,0.1,1.1,88,0.00,CLR,OVC,0.00,0.0,WeatherDisplay:10.37,2013-12-14 11:37:00,
2013-12-14 06:42:00,47.0,43.6,30.26,NNE,30,0.0,1.1,88,0.00,CLR,OVC,0.00,0.0,WeatherDisplay:10.37,2013-12-14 11:42:00,
2013-12-14 06:47:00,47.2,43.8,30.26,NNE,31,0.0,1.1,88,0.00,CLR,OVC,0.00,0.0,WeatherDisplay:10.37,2013-12-14 11:47:00,
2013-12-14 06:53:00,47.7,44.9,30.25,NE,51,1.7,3.5,90,0.00,CLR,OVC,0.00,0.0,WeatherDisplay:10.37,2013-12-14 11:53:00,
2013-12-14 06:58:00,48.7,45.6,30.25,ENE,59,0.8,3.5,89,0.00,CLR,OVC,0.00,0.0,WeatherDisplay:10.37,2013-12-14 11:58:00,
2013-12-14 07:03:00,49.3,45.9,30.25,ENE,67,2.3,6.9,88,0.00,OVC,,0.00,0.0,WeatherDisplay:10.37,2013-12-14 12:03:00,
2013-12-14 07:08:00,49.8,46.1,30.24,NE,44,3.5,7.0,87,0.00,OVC,,0.00,0.0,WeatherDisplay:10.37,2013-12-14 12:08:00,
2013-12-14 07:13:00,50.1,46.1,30.25,ENE,59,4.2,6.9,86,0.00,OVC,,0.00,0.0,WeatherDisplay:10.37,2013-12-14 12:13:00,
2013-12-14 07:18:00,50.3,46.3,30.25,ENE,60,2.3,4.6,86,0.00,OVC,,0.00,0.0,WeatherDisplay:10.37,2013-12-14 12:18:00,
2013-12-14 07:23:00,50.4,46.1,30.25,ENE,65,3.0,4.6,85,0.00,OVC,,0.00,0.0,WeatherDisplay:10.37,2013-12-14 12:23:00,
2013-12-14 07:28:00,50.5,46.2,30.25,ENE,57,6.9,10.4,85,0.00,OVC,,0.00,0.0,WeatherDisplay:10.37,2013-12-14 12:28:00,
2013-12-14 07:33:00,50.7,46.4,30.26,ENE,59,1.9,5.8,85,0.00,OVC,,0.00,0.0,WeatherDisplay:10.37,2013-12-14 12:33:00,
2013-12-14 07:38:00,50.7,46.4,30.26,NE,54,3.1,6.9,85,0.00,OVC,,0.00,0.0,WeatherDisplay:10.37,2013-12-14 12:38:00,
2013-12-14 07:43:00,50.8,46.5,30.25,ENE,72,6.6,8.1,85,0.00,OVC,,0.00,0.0,WeatherDisplay:10.37,2013-12-14 12:43:00,
2013-12-14 07:48:00,50.9,46.6,30.26,ENE,57,4.3,9.2,85,0.00,OVC,,0.00,0.0,WeatherDisplay:10.37,2013-12-14 12:48:00,
2013-12-14 07:53:00,50.9,46.6,30.26,NE,49,2.2,4.6,85,0.00,OVC,,0.00,0.0,WeatherDisplay:10.37,2013-12-14 12:53:00,
2013-12-14 07:58:00,50.9,46.6,30.26,NE,53,1.1,3.5,85,0.00,OVC,,0.00,0.0,WeatherDisplay:10.37,2013-12-14 12:58:00,
2013-12-14 08:03:00,50.8,46.5,30.26,NE,53,6.1,9.2,85,0.00,OVC,,0.00,0.0,WeatherDisplay:10.37,2013-12-14 13:03:00,
2013-12-14 08:08:00,50.9,46.9,30.26,NE,36,3.0,5.8,86,0.00,OVC,,0.00,0.0,WeatherDisplay:10.37,2013-12-14 13:08:00,
2013-12-14 08:13:00,50.9,46.9,30.26,NE,51,3.5,4.6,86,0.00,OVC,,0.00,0.0,WeatherDisplay:10.37,2013-12-14 13:13:00,
2013-12-14 08:18:00,50.9,46.9,30.27,NE,40,1.0,4.6,86,0.00,OVC,,0.00,0.0,WeatherDisplay:10.37,2013-12-14 13:18:00,
2013-12-14 08:23:00,51.0,47.0,30.27,ENE,65,1.1,4.6,86,0.00,OVC,,0.00,0.0,WeatherDisplay:10.37,2013-12-14 13:23:00,
2013-12-14 08:28:00,51.0,47.0,30.27,NNE,32,2.4,4.6,86,0.00,OVC,,0.00,0.0,WeatherDisplay:10.37,2013-12-14 13:28:00,
2013-12-14 08:33:00,51.2,47.2,30.27,NNE,26,2.5,5.8,86,0.00,OVC,,0.00,0.0,WeatherDisplay:10.37,2013-12-14 13:33:00,
2013-12-14 08:38:00,51.3,47.3,30.27,NE,35,1.6,2.3,86,0.00,OVC,,0.00,0.0,WeatherDisplay:10.37,2013-12-14 13:38:00,
2013-12-14 08:43:00,51.5,47.5,30.27,NE,55,2.6,6.9,86,0.00,OVC,,0.00,0.0,WeatherDisplay:10.37,2013-12-14 13:43:00,
2013-12-14 08:48:00,51.9,47.8,30.26,ENE,72,3.1,4.6,86,0.00,OVC,,0.00,0.0,WeatherDisplay:10.37,2013-12-14 13:48:00,
2013-12-14 08:53:00,52.5,48.4,30.25,ENE,60,5.7,10.4,86,0.00,OVC,,0.00,0.0,WeatherDisplay:10.37,2013-12-14 13:53:00,
2013-12-14 08:58:00,53.4,49.0,30.24,NE,51,7.5,10.4,85,0.00,OVC,,0.00,0.0,WeatherDisplay:10.37,2013-12-14 13:58:00,
2013-12-14 09:03:00,54.2,49.1,30.24,NE,46,9.4,12.7,83,0.00,OVC,,0.00,0.0,WeatherDisplay:10.37,2013-12-14 14:03:00,
2013-12-14 09:08:00,54.4,49.3,30.24,ENE,57,8.8,11.5,83,0.00,OVC,,0.00,0.0,WeatherDisplay:10.37,2013-12-14 14:08:00,
2013-12-14 09:13:00,54.7,49.3,30.24,NE,34,6.5,10.0,82,0.00,OVC,,0.00,0.0,WeatherDisplay:10.37,2013-12-14 14:13:00,
2013-12-14 09:18:00,55.0,49.3,30.24,NE,40,5.5,9.2,81,0.00,OVC,,0.00,0.0,WeatherDisplay:10.37,2013-12-14 14:18:00,
2013-12-14 09:23:00,55.2,49.5,30.23,ENE,57,6.5,13.0,81,0.00,OVC,,0.00,0.0,WeatherDisplay:10.37,2013-12-14 14:23:00,
2013-12-14 09:28:00,55.2,49.5,30.24,ENE,65,6.7,8.1,81,0.00,OVC,,0.00,0.0,WeatherDisplay:10.37,2013-12-14 14:28:00,
2013-12-14 09:33:00,55.2,49.5,30.23,NE,53,4.8,10.4,81,0.00,OVC,,0.00,0.0,WeatherDisplay:10.37,2013-12-14 14:33:00,
2013-12-14 09:38:00,55.2,49.5,30.23,East,80,1.8,4.6,81,0.00,OVC,,0.00,0.0,WeatherDisplay:10.37,2013-12-14 14:38:00,
2013-12-14 09:43:00,55.3,49.6,30.22,NE,51,4.1,6.9,81,0.00,OVC,,0.00,0.0,WeatherDisplay:10.37,2013-12-14 14:43:00,
2013-12-14 09:48:00,55.4,49.7,30.22,ENE,60,3.9,8.1,81,0.00,OVC,,0.00,0.0,WeatherDisplay:10.37,2013-12-14 14:48:00,
2013-12-14 09:53:00,55.4,49.7,30.22,ENE,70,5.8,11.5,81,0.00,OVC,,0.00,0.0,WeatherDisplay:10.37,2013-12-14 14:53:00,
2013-12-14 09:58:00,55.3,49.6,30.22,ENE,76,4.1,12.0,81,0.00,OVC,,0.00,0.0,WeatherDisplay:10.37,2013-12-14 14:58:00,
2013-12-14 10:03:00,55.3,49.6,30.23,NE,52,1.7,3.5,81,0.00,OVC,,0.00,0.0,WeatherDisplay:10.37,2013-12-14 15:03:00,
2013-12-14 10:08:00,55.4,50.0,30.22,ENE,57,3.9,9.2,82,0.00,OVC,,0.00,0.0,WeatherDisplay:10.37,2013-12-14 15:08:00,
2013-12-14 10:13:00,55.5,49.8,30.22,ENE,65,3.1,8.1,81,0.00,OVC,,0.00,0.0,WeatherDisplay:10.37,2013-12-14 15:13:00,
2013-12-14 10:18:00,55.4,49.7,30.22,ENE,77,6.8,8.1,81,0.00,OVC,,0.00,0.0,WeatherDisplay:10.37,2013-12-14 15:18:00,
2013-12-14 10:23:00,55.4,50.0,30.21,NE,53,2.4,5.8,82,0.00,OVC,,0.00,0.0,WeatherDisplay:10.37,2013-12-14 15:23:00,
2013-12-14 10:28:00,55.4,50.0,30.21,East,82,1.1,5.0,82,0.00,OVC,,0.00,0.0,WeatherDisplay:10.37,2013-12-14 15:28:00,
2013-12-14 10:33:00,55.4,50.0,30.21,NE,41,6.4,6.9,82,0.00,OVC,,0.00,0.0,WeatherDisplay:10.37,2013-12-14 15:33:00,
2013-12-14 10:38:00,55.1,49.4,30.20,ENE,74,3.8,9.2,81,0.00,OVC,,0.00,0.0,WeatherDisplay:10.37,2013-12-14 15:38:00,
2013-12-14 10:43:00,54.9,49.5,30.20,East,82,6.0,9.2,82,0.00,OVC,,0.00,0.0,WeatherDisplay:10.37,2013-12-14 15:43:00,
2013-12-14 10:48:00,54.8,49.4,30.19,NE,46,5.0,9.2,82,0.00,OVC,,0.00,0.0,WeatherDisplay:10.37,2013-12-14 15:48:00,
2013-12-14 10:53:00,54.8,49.7,30.18,East,80,5.9,11.5,83,0.00,OVC,,0.00,0.0,WeatherDisplay:10.37,2013-12-14 15:53:00,
2013-12-14 10:58:00,55.1,50.0,30.18,NE,44,4.6,9.2,83,0.00,OVC,,0.00,0.0,WeatherDisplay:10.37,2013-12-14 15:58:00,
2013-12-14 11:03:00,55.2,50.1,30.19,NE,49,6.8,10.4,83,0.00,OVC,,0.00,0.0,WeatherDisplay:10.37,2013-12-14 16:03:00,
2013-12-14 11:08:00,55.2,50.1,30.18,ENE,67,2.9,4.6,83,0.00,OVC,,0.00,0.0,WeatherDisplay:10.37,2013-12-14 16:08:00,
2013-12-14 11:13:00,55.0,50.9,30.17,East,89,3.7,6.0,86,0.01,RA,OVC,0.01,0.0,WeatherDisplay:10.37,2013-12-14 16:13:00,
2013-12-14 11:18:00,54.8,51.6,30.17,NE,53,0.8,3.5,89,0.01,RA,OVC,0.01,0.0,WeatherDisplay:10.37,2013-12-14 16:18:00,
2013-12-14 11:23:00,54.9,52.0,30.16,NE,43,7.9,8.1,90,0.02,RA,OVC,0.02,0.0,WeatherDisplay:10.37,2013-12-14 16:23:00,
2013-12-14 11:28:00,54.9,52.0,30.15,NE,50,5.6,5.8,90,0.02,RA,OVC,0.02,0.0,WeatherDisplay:10.37,2013-12-14 16:28:00,
2013-12-14 11:33:00,55.3,52.7,30.14,East,101,1.9,1.9,91,0.02,OVC,,0.02,0.0,WeatherDisplay:10.37,2013-12-14 16:33:00,
2013-12-14 11:38:00,55.5,52.6,30.14,NE,48,4.0,6.9,90,0.02,OVC,,0.02,0.0,WeatherDisplay:10.37,2013-12-14 16:38:00,
2013-12-14 11:43:00,56.0,53.4,30.13,NNE,22,4.7,10.4,91,0.02,OVC,,0.02,0.0,WeatherDisplay:10.37,2013-12-14 16:43:00,
2013-12-14 11:48:00,56.5,53.9,30.13,SE,140,0.1,1.1,91,0.02,OVC,,0.02,0.0,WeatherDisplay:10.37,2013-12-14 16:48:00,
2013-12-14 11:53:00,56.9,54.3,30.11,East,101,1.4,3.5,91,0.02,OVC,,0.02,0.0,WeatherDisplay:10.37,2013-12-14 16:53:00,
2013-12-14 11:58:00,57.3,54.4,30.11,NNE,30,0.2,4.0,90,0.02,OVC,,0.02,0.0,WeatherDisplay:10.37,2013-12-14 16:58:00,
2013-12-14 12:03:00,57.6,54.7,30.10,NNE,25,2.0,4.6,90,0.02,OVC,,0.02,0.0,WeatherDisplay:10.37,2013-12-14 17:03:00,
2013-12-14 12:08:00,57.8,54.9,30.10,East,99,4.4,6.9,90,0.02,OVC,,0.02,0.0,WeatherDisplay:10.37,2013-12-14 17:08:00,
2013-12-14 12:13:00,58.2,55.3,30.09,ESE,111,1.7,4.6,90,0.01,OVC,,0.02,0.0,WeatherDisplay:10.37,2013-12-14 17:13:00,
2013-12-14 12:18:00,58.8,56.2,30.09,ESE,110,1.4,4.6,91,0.01,OVC,,0.02,0.0,WeatherDisplay:10.37,2013-12-14 17:18:00,
2013-12-14 12:23:00,59.3,56.4,30.09,East,86,0.1,1.1,90,0.00,OVC,,0.02,0.0,WeatherDisplay:10.37,2013-12-14 17:23:00,
2013-12-14 12:29:00,59.7,56.8,30.09,SSE,154,0.1,1.1,90,0.00,OVC,,0.02,0.0,WeatherDisplay:10.37,2013-12-14 17:29:00,
2013-12-14 12:34:00,60.2,57.6,30.08,East,88,0.2,2.3,91,0.00,OVC,,0.02,0.0,WeatherDisplay:10.37,2013-12-14 17:34:00,
2013-12-14 12:39:00,60.7,58.1,30.08,ESE,103,0.6,3.5,91,0.00,OVC,,0.02,0.0,WeatherDisplay:10.37,2013-12-14 17:39:00,
2013-12-14 12:44:00,61.4,58.4,30.07,SE,124,4.3,10.4,90,0.00,OVC,,0.02,0.0,WeatherDisplay:10.37,2013-12-14 17:44:00,
2013-12-14 12:49:00,62.1,58.5,30.07,ESE,115,2.7,9.2,88,0.00,OVC,,0.02,0.0,WeatherDisplay:10.37,2013-12-14 17:49:00,
2013-12-14 12:54:00,62.6,58.7,30.06,SE,127,4.0,11.5,87,0.00,OVC,,0.02,0.0,WeatherDisplay:10.37,2013-12-14 17:54:00,
2013-12-14 12:59:00,63.0,58.7,30.06,ESE,123,7.1,11.5,86,0.00,OVC,,0.02,0.0,WeatherDisplay:10.37,2013-12-14 17:59:00,
2013-12-14 13:04:00,63.5,58.9,30.05,South,171,1.2,3.5,85,0.00,OVC,,0.02,0.0,WeatherDisplay:10.37,2013-12-14 18:04:00,
2013-12-14 13:09:00,64.0,59.4,30.05,South,175,6.4,12.7,85,0.00,OVC,,0.02,0.0,WeatherDisplay:10.37,2013-12-14 18:09:00,
2013-12-14 13:14:00,64.9,59.6,30.05,South,175,2.6,8.1,83,0.00,OVC,,0.02,0.0,WeatherDisplay:10.37,2013-12-14 18:14:00,
2013-12-14 13:19:00,65.8,60.2,30.04,SSE,148,2.8,8.1,82,0.00,OVC,,0.02,0.0,WeatherDisplay:10.37,2013-12-14 18:19:00,
2013-12-14 13:24:00,66.6,60.6,30.02,SE,136,4.2,5.8,81,0.00,OVC,,0.02,0.0,WeatherDisplay:10.37,2013-12-14 18:24:00,
2013-12-14 13:29:00,67.1,60.4,30.01,SSE,157,6.0,11.5,79,0.00,OVC,,0.02,0.0,WeatherDisplay:10.37,2013-12-14 18:29:00,
2013-12-14 13:34:00,67.2,60.5,30.01,SE,136,5.9,14.0,79,0.00,OVC,,0.02,0.0,WeatherDisplay:10.37,2013-12-14 18:34:00,
2013-12-14 13:39:00,67.0,60.3,30.01,East,99,4.5,9.2,79,0.00,OVC,,0.02,0.0,WeatherDisplay:10.37,2013-12-14 18:39:00,
2013-12-14 13:44:00,66.8,60.1,30.01,ESE,105,7.0,15.0,79,0.00,OVC,,0.02,0.0,WeatherDisplay:10.37,2013-12-14 18:44:00,
2013-12-14 13:49:00,66.5,59.8,30.00,SSE,165,5.0,10.0,79,0.00,OVC,,0.02,0.0,WeatherDisplay:10.37,2013-12-14 18:49:00,
2013-12-14 13:54:00,66.4,59.7,30.00,SE,132,7.3,14.0,79,0.00,OVC,,0.02,0.0,WeatherDisplay:10.37,2013-12-14 18:54:00,
2013-12-14 13:59:00,66.4,59.7,30.00,East,93,6.9,13.8,79,0.00,OVC,,0.02,0.0,WeatherDisplay:10.37,2013-12-14 18:59:00,
2013-12-14 14:04:00,66.4,59.7,29.99,East,86,6.1,17.3,79,0.00,OVC,,0.02,0.0,WeatherDisplay:10.37,2013-12-14 19:04:00,
2013-12-14 14:09:00,66.5,59.8,29.99,SE,126,5.6,15.0,79,0.00,OVC,,0.02,0.0,WeatherDisplay:10.37,2013-12-14 19:09:00,
2013-12-14 14:14:00,66.6,59.9,29.99,SSE,150,4.9,10.4,79,0.00,OVC,,0.02,0.0,WeatherDisplay:10.37,2013-12-14 19:14:00,
2013-12-14 14:19:00,66.8,60.1,29.98,SSE,147,9.4,15.0,79,0.00,OVC,,0.02,0.0,WeatherDisplay:10.37,2013-12-14 19:19:00,
2013-12-14 14:24:00,66.9,60.2,29.98,South,178,6.4,15.0,79,0.00,OVC,,0.02,0.0,WeatherDisplay:10.37,2013-12-14 19:24:00,
2013-12-14 14:29:00,66.9,60.2,29.98,SE,143,7.9,9.2,79,0.00,OVC,,0.02,0.0,WeatherDisplay:10.37,2013-12-14 19:29:00,
2013-12-14 14:34:00,66.8,60.1,29.98,ESE,114,5.6,18.4,79,0.00,OVC,,0.02,0.0,WeatherDisplay:10.37,2013-12-14 19:34:00,
2013-12-14 14:39:00,66.6,60.2,29.97,ESE,105,9.2,18.4,80,0.00,OVC,,0.02,0.0,WeatherDisplay:10.37,2013-12-14 19:39:00,
2013-12-14 14:44:00,66.5,60.1,29.97,East,94,4.1,11.5,80,0.00,OVC,,0.02,0.0,WeatherDisplay:10.37,2013-12-14 19:44:00,
2013-12-14 14:49:00,66.5,60.5,29.96,South,176,7.2,15.0,81,0.00,OVC,,0.02,0.0,WeatherDisplay:10.37,2013-12-14 19:49:00,
2013-12-14 14:54:00,66.6,60.6,29.96,East,82,3.3,8.1,81,0.00,OVC,,0.02,0.0,WeatherDisplay:10.37,2013-12-14 19:54:00,
2013-12-14 14:59:00,66.6,60.6,29.95,ESE,111,4.7,11.5,81,0.00,OVC,,0.02,0.0,WeatherDisplay:10.37,2013-12-14 19:59:00,
2013-12-14 15:04:00,66.5,60.8,29.96,SSE,165,6.0,11.5,82,0.00,OVC,,0.02,0.0,WeatherDisplay:10.37,2013-12-14 20:04:00,
2013-12-14 15:09:00,66.4,60.7,29.96,SE,132,5.6,11.5,82,0.00,OVC,,0.02,0.0,WeatherDisplay:10.37,2013-12-14 20:09:00,
2013-12-14 15:14:00,66.3,60.6,29.95,SE,138,4.2,13.8,82,0.00,OVC,,0.02,0.0,WeatherDisplay:10.37,2013-12-14 20:14:00,
2013-12-14 15:20:00,66.3,61.0,29.95,ENE,78,8.1,16.1,83,0.00,OVC,,0.02,0.0,WeatherDisplay:10.37,2013-12-14 20:20:00,
2013-12-14 15:25:00,66.3,61.3,29.94,South,169,5.8,11.5,84,0.00,OVC,,0.02,0.0,WeatherDisplay:10.37,2013-12-14 20:25:00,
2013-12-14 15:30:00,66.2,61.2,29.94,East,97,7.0,13.8,84,0.00,OVC,,0.02,0.0,WeatherDisplay:10.37,2013-12-14 20:30:00,
2013-12-14 15:35:00,66.2,61.2,29.94,SSE,150,7.1,15.0,84,0.00,OVC,,0.02,0.0,WeatherDisplay:10.37,2013-12-14 20:35:00,
2013-12-14 15:40:00,66.2,61.2,29.94,South,178,4.3,9.2,84,0.00,OVC,,0.02,0.0,WeatherDisplay:10.37,2013-12-14 20:40:00,
2013-12-14 15:45:00,66.3,61.3,29.93,SSE,147,6.1,15.0,84,0.00,OVC,,0.02,0.0,WeatherDisplay:10.37,2013-12-14 20:45:00,
2013-12-14 15:50:00,66.4,61.4,29.92,South,180,5.3,13.8,84,0.00,OVC,,0.02,0.0,WeatherDisplay:10.37,2013-12-14 20:50:00,
2013-12-14 15:55:00,66.5,61.2,29.92,SE,133,6.4,10.4,83,0.00,OVC,,0.02,0.0,WeatherDisplay:10.37,2013-12-14 20:55:00,
2013-12-14 16:00:00,66.6,61.6,29.92,SSE,148,5.8,16.1,84,0.00,OVC,,0.02,0.0,WeatherDisplay:10.37,2013-12-14 21:00:00,
2013-12-14 16:05:00,66.6,61.3,29.91,South,176,4.2,12.7,83,0.00,OVC,,0.02,0.0,WeatherDisplay:10.37,2013-12-14 21:05:00,
2013-12-14 16:10:00,66.5,61.2,29.91,East,98,2.5,8.1,83,0.00,OVC,,0.02,0.0,WeatherDisplay:10.37,2013-12-14 21:10:00,
2013-12-14 16:15:00,66.5,60.8,29.91,ENE,76,6.6,11.5,82,0.00,OVC,,0.02,0.0,WeatherDisplay:10.37,2013-12-14 21:15:00,
2013-12-14 16:20:00,66.5,60.8,29.91,SSE,166,4.6,10.4,82,0.00,OVC,,0.02,0.0,WeatherDisplay:10.37,2013-12-14 21:20:00,
2013-12-14 16:25:00,66.5,60.8,29.91,ESE,116,4.9,12.7,82,0.00,OVC,,0.02,0.0,WeatherDisplay:10.37,2013-12-14 21:25:00,
2013-12-14 16:30:00,66.5,60.8,29.91,South,184,3.4,13.0,82,0.00,OVC,,0.02,0.0,WeatherDisplay:10.37,2013-12-14 21:30:00,
2013-12-14 16:35:00,66.6,60.9,29.91,SSE,165,4.0,10.4,82,0.00,OVC,,0.02,0.0,WeatherDisplay:10.37,2013-12-14 21:35:00,
2013-12-14 16:40:00,66.6,60.9,29.91,ESE,117,2.5,8.1,82,0.00,OVC,,0.02,0.0,WeatherDisplay:10.37,2013-12-14 21:40:00,
2013-12-14 16:45:00,66.5,61.2,29.91,ENE,74,2.7,9.2,83,0.00,OVC,,0.02,0.0,WeatherDisplay:10.37,2013-12-14 21:45:00,
2013-12-14 16:50:00,66.4,61.1,29.90,South,177,2.6,11.5,83,0.00,OVC,,0.02,0.0,WeatherDisplay:10.37,2013-12-14 21:50:00,
2013-12-14 16:55:00,66.3,61.0,29.90,South,190,5.7,16.1,83,0.00,OVC,,0.02,0.0,WeatherDisplay:10.37,2013-12-14 21:55:00,
2013-12-14 17:00:00,66.2,61.2,29.89,South,186,5.9,12.7,84,0.00,OVC,,0.02,0.0,WeatherDisplay:10.37,2013-12-14 22:00:00,
2013-12-14 17:05:00,66.0,61.4,29.89,ESE,117,5.8,9.2,85,0.00,OVC,,0.02,0.0,WeatherDisplay:10.37,2013-12-14 22:05:00,
2013-12-14 17:10:00,65.9,61.3,29.89,South,190,6.7,12.7,85,0.00,OVC,,0.02,0.0,WeatherDisplay:10.37,2013-12-14 22:10:00,
2013-12-14 17:15:00,65.7,61.1,29.88,SSE,160,6.1,15.0,85,0.00,OVC,,0.02,0.0,WeatherDisplay:10.37,2013-12-14 22:15:00,
2013-12-14 17:20:00,65.8,61.2,29.88,South,171,6.5,11.5,85,0.00,OVC,,0.02,0.0,WeatherDisplay:10.37,2013-12-14 22:20:00,
2013-12-14 17:25:00,65.9,60.9,29.88,ENE,76,4.1,12.7,84,0.00,OVC,,0.02,0.0,WeatherDisplay:10.37,2013-12-14 22:25:00,
2013-12-14 17:30:00,65.9,61.3,29.86,ESE,119,4.5,11.5,85,0.00,OVC,,0.02,0.0,WeatherDisplay:10.37,2013-12-14 22:30:00,
2013-12-14 17:35:00,65.8,61.5,29.87,SSE,150,5.0,10.4,86,0.01,RA,OVC,0.03,0.0,WeatherDisplay:10.37,2013-12-14 22:35:00,
2013-12-14 17:40:00,65.4,61.8,29.87,SSE,163,5.0,9.2,88,0.02,RA,OVC,0.04,0.0,WeatherDisplay:10.37,2013-12-14 22:40:00,
2013-12-14 17:45:00,65.0,62.0,29.86,SE,135,3.8,12.7,90,0.03,RA,OVC,0.05,0.0,WeatherDisplay:10.37,2013-12-14 22:45:00,
2013-12-14 17:50:00,64.7,62.0,29.87,ENE,76,4.6,11.5,91,0.05,RA,OVC,0.07,0.0,WeatherDisplay:10.37,2013-12-14 22:50:00,
2013-12-14 17:55:00,64.4,62.0,29.86,South,182,6.1,17.3,92,0.05,RA,OVC,0.08,0.0,WeatherDisplay:10.37,2013-12-14 22:55:00,
2013-12-14 18:00:00,64.4,62.0,29.87,ESE,117,5.5,13.8,92,0.06,RA,OVC,0.08,0.0,WeatherDisplay:10.37,2013-12-14 23:00:00,
2013-12-14 18:05:00,64.4,62.3,29.87,ESE,111,7.5,11.5,93,0.07,RA,OVC,0.09,0.0,WeatherDisplay:10.37,2013-12-14 23:05:00,
2013-12-14 18:10:00,64.5,62.4,29.87,ESE,121,9.9,12.7,93,0.07,RA,OVC,0.10,0.0,WeatherDisplay:10.37,2013-12-14 23:10:00,
2013-12-14 18:15:00,64.5,62.7,29.86,South,180,6.1,12.7,94,0.10,RA,OVC,0.13,0.0,WeatherDisplay:10.37,2013-12-14 23:15:00,
2013-12-14 18:20:00,64.5,62.7,29.86,SSE,167,5.5,10.4,94,0.11,RA,OVC,0.13,0.0,WeatherDisplay:10.37,2013-12-14 23:20:00,
2013-12-14 18:25:00,64.4,62.6,29.86,SE,146,6.4,10.4,94,0.11,RA,OVC,0.13,0.0,WeatherDisplay:10.37,2013-12-14 23:25:00,
2013-12-14 18:30:00,64.4,62.9,29.87,South,187,6.6,10.4,95,0.12,RA,OVC,0.14,0.0,WeatherDisplay:10.37,2013-12-14 23:30:00,
2013-12-14 18:35:00,64.5,63.0,29.87,SW,221,7.0,21.9,95,0.11,RA,OVC,0.14,0.0,WeatherDisplay:10.37,2013-12-14 23:35:00,
2013-12-14 18:40:00,64.6,63.1,29.87,SSE,163,4.6,15.0,95,0.10,CLR,OVC,0.14,0.0,WeatherDisplay:10.37,2013-12-14 23:40:00,
2013-12-14 18:45:00,64.8,63.3,29.86,SSE,148,3.5,11.5,95,0.09,CLR,OVC,0.14,0.0,WeatherDisplay:10.37,2013-12-14 23:45:00,
2013-12-14 18:50:00,64.9,63.7,29.86,South,182,5.6,13.8,96,0.07,CLR,OVC,0.15,0.0,WeatherDisplay:10.37,2013-12-14 23:50:00,
2013-12-14 18:55:00,65.0,63.8,29.86,SSE,157,8.2,13.8,96,0.08,RA,OVC,0.15,0.0,WeatherDisplay:10.37,2013-12-14 23:55:00,
2013-12-14 19:00:00,65.0,63.8,29.86,SSW,211,7.6,13.8,96,0.07,RA,OVC,0.15,0.0,WeatherDisplay:10.37,2013-12-15 00:00:00,
2013-12-14 19:05:00,65.0,63.8,29.86,SE,135,1.8,9.2,96,0.06,CLR,OVC,0.15,0.0,WeatherDisplay:10.37,2013-12-15 00:05:00,
2013-12-14 19:10:00,65.0,63.8,29.86,SE,146,6.4,10.4,96,0.06,CLR,OVC,0.15,0.0,WeatherDisplay:10.37,2013-12-15 00:10:00,
2013-12-14 19:15:00,65.2,64.0,29.86,SSE,150,5.0,11.5,96,0.06,RA,OVC,0.19,0.0,WeatherDisplay:10.37,2013-12-15 00:15:00,
2013-12-14 19:20:00,65.3,64.1,29.86,South,176,5.0,11.5,96,0.06,RA,OVC,0.19,0.0,WeatherDisplay:10.37,2013-12-15 00:20:00,
2013-12-14 19:25:00,65.5,64.3,29.86,SSE,167,4.8,4.8,96,0.06,RA,OVC,0.19,0.0,WeatherDisplay:10.37,2013-12-15 00:25:00,
2013-12-14 19:30:00,65.6,64.4,29.86,SSE,166,7.0,10.4,96,0.06,RA,OVC,0.20,0.0,WeatherDisplay:10.37,2013-12-15 00:30:00,
2013-12-14 19:35:00,65.6,64.4,29.85,South,177,4.9,10.0,96,0.06,RA,OVC,0.20,0.0,WeatherDisplay:10.37,2013-12-15 00:35:00,
2013-12-14 19:40:00,65.6,64.4,29.85,SSE,161,5.5,8.1,96,0.06,,OVC,0.20,0.0,WeatherDisplay:10.37,2013-12-15 00:40:00,
2013-12-14 19:45:00,65.7,64.5,29.85,SSE,157,3.2,5.8,96,0.07,RA,OVC,0.21,0.0,WeatherDisplay:10.37,2013-12-15 00:45:00,
2013-12-14 19:50:00,65.7,64.5,29.84,South,188,4.4,10.4,96,0.06,RA,OVC,0.21,0.0,WeatherDisplay:10.37,2013-12-15 00:50:00,
2013-12-14 19:55:00,65.7,64.5,29.84,SSE,161,4.6,8.0,96,0.06,CLR,OVC,0.21,0.0,WeatherDisplay:10.37,2013-12-15 00:55:00,
2013-12-14 20:00:00,65.9,65.0,29.84,WSW,243,7.1,13.8,97,0.06,CLR,OVC,0.21,0.0,WeatherDisplay:10.37,2013-12-15 01:00:00,
2013-12-14 20:05:00,66.0,64.8,29.84,SSW,196,5.5,9.2,96,0.06,CLR,OVC,0.21,0.0,WeatherDisplay:10.37,2013-12-15 01:05:00,
2013-12-14 20:11:00,66.1,64.9,29.84,SSW,211,4.4,6.9,96,0.07,RA,OVC,0.22,0.0,WeatherDisplay:10.37,2013-12-15 01:11:00,
2013-12-14 20:16:00,66.2,65.0,29.84,SW,215,1.8,4.0,96,0.03,RA,OVC,0.22,0.0,WeatherDisplay:10.37,2013-12-15 01:16:00,
2013-12-14 20:21:00,66.2,65.0,29.84,South,186,4.5,6.9,96,0.03,,OVC,0.22,0.0,WeatherDisplay:10.37,2013-12-15 01:21:00,
2013-12-14 20:26:00,66.2,65.0,29.83,South,186,3.3,6.9,96,0.03,CLR,OVC,0.22,0.0,WeatherDisplay:10.37,2013-12-15 01:26:00,
2013-12-14 20:31:00,66.3,65.4,29.83,South,169,3.6,5.8,97,0.05,RA,OVC,0.25,0.0,WeatherDisplay:10.37,2013-12-15 01:31:00,
2013-12-14 20:36:00,66.4,65.5,29.83,SSW,210,3.6,6.9,97,0.05,RA,OVC,0.25,0.0,WeatherDisplay:10.37,2013-12-15 01:36:00,
2013-12-14 20:41:00,66.6,65.7,29.84,SW,216,5.0,9.2,97,0.08,RA,OVC,0.29,0.0,WeatherDisplay:10.37,2013-12-15 01:41:00,
2013-12-14 20:46:00,66.8,65.9,29.83,SW,214,7.2,13.8,97,0.16,RA,OVC,0.38,0.0,WeatherDisplay:10.37,2013-12-15 01:46:00,
2013-12-14 20:51:00,67.0,66.1,29.83,SSW,200,9.4,10.4,97,0.25,RA,OVC,0.46,0.0,WeatherDisplay:10.37,2013-12-15 01:51:00,
2013-12-14 20:56:00,67.3,66.4,29.83,SSW,211,7.3,12.7,97,0.26,RA,OVC,0.47,0.0,WeatherDisplay:10.37,2013-12-15 01:56:00,
2013-12-14 21:01:00,67.5,66.6,29.83,West,265,6.3,14.0,97,0.26,RA,OVC,0.47,0.0,WeatherDisplay:10.37,2013-12-15 02:01:00,
2013-12-14 21:06:00,67.7,66.8,29.83,SSW,207,9.2,17.3,97,0.26,CLR,OVC,0.47,0.0,WeatherDisplay:10.37,2013-12-15 02:06:00,
2013-12-14 21:11:00,67.9,67.0,29.83,SW,217,8.4,13.8,97,0.25,CLR,OVC,0.47,0.0,WeatherDisplay:10.37,2013-12-15 02:11:00,
2013-12-14 21:16:00,68.0,66.8,29.83,South,178,7.7,11.5,96,0.25,CLR,OVC,0.47,0.0,WeatherDisplay:10.37,2013-12-15 02:16:00,
2013-12-14 21:21:00,68.0,66.8,29.83,SSW,208,7.3,11.5,96,0.26,RA,OVC,0.48,0.0,WeatherDisplay:10.37,2013-12-15 02:21:00,
2013-12-14 21:26:00,68.0,66.8,29.83,SSW,201,9.6,17.3,96,0.26,RA,OVC,0.48,0.0,WeatherDisplay:10.37,2013-12-15 02:26:00,
2013-12-14 21:31:00,68.0,66.8,29.83,SSW,213,7.2,11.5,96,0.23,CLR,OVC,0.48,0.0,WeatherDisplay:10.37,2013-12-15 02:31:00,
2013-12-14 21:36:00,67.9,66.7,29.82,WSW,242,3.3,12.7,96,0.23,CLR,OVC,0.48,0.0,WeatherDisplay:10.37,2013-12-15 02:36:00,
2013-12-14 21:41:00,67.8,66.6,29.82,SSW,202,4.9,11.5,96,0.20,CLR,OVC,0.48,0.0,WeatherDisplay:10.37,2013-12-15 02:41:00,
2013-12-14 21:46:00,67.7,66.5,29.82,SSW,206,5.5,12.0,96,0.11,CLR,OVC,0.48,0.0,WeatherDisplay:10.37,2013-12-15 02:46:00,
2013-12-14 21:51:00,67.7,66.5,29.82,SW,234,2.4,5.8,96,0.02,CLR,OVC,0.48,0.0,WeatherDisplay:10.37,2013-12-15 02:51:00,
2013-12-14 21:56:00,67.6,66.4,29.81,WSW,242,2.2,8.1,96,0.01,CLR,OVC,0.48,0.0,WeatherDisplay:10.37,2013-12-15 02:56:00,
2013-12-14 22:01:00,67.5,66.3,29.81,West,261,0.7,2.3,96,0.01,CLR,OVC,0.48,0.0,WeatherDisplay:10.37,2013-12-15 03:01:00,
2013-12-14 22:06:00,67.3,66.1,29.80,West,260,1.7,6.9,96,0.01,CLR,OVC,0.48,0.0,WeatherDisplay:10.37,2013-12-15 03:06:00,
2013-12-14 22:11:00,66.9,65.7,29.80,WNW,296,0.5,1.1,96,0.01,CLR,OVC,0.48,0.0,WeatherDisplay:10.37,2013-12-15 03:11:00,
2013-12-14 22:16:00,66.5,65.0,29.79,NW,310,3.1,5.8,95,0.02,RA,OVC,0.49,0.0,WeatherDisplay:10.37,2013-12-15 03:16:00,
2013-12-14 22:21:00,66.1,64.6,29.80,WSW,240,2.9,5.0,95,0.01,RA,OVC,0.49,0.0,WeatherDisplay:10.37,2013-12-15 03:21:00,
2013-12-14 22:26:00,65.8,64.6,29.79,WSW,242,0.3,2.3,96,0.12,RA,OVC,0.60,0.0,WeatherDisplay:10.37,2013-12-15 03:26:00,
2013-12-14 22:31:00,65.7,64.5,29.81,SSW,210,6.1,12.0,96,0.12,RA,OVC,0.60,0.0,WeatherDisplay:10.37,2013-12-15 03:31:00,
2013-12-14 22:36:00,66.1,65.2,29.81,SW,223,3.1,8.1,97,0.12,,OVC,0.61,0.0,WeatherDisplay:10.37,2013-12-15 03:36:00,
2013-12-14 22:41:00,66.3,65.4,29.80,SSW,205,9.0,17.3,97,0.13,RA,OVC,0.61,0.0,WeatherDisplay:10.37,2013-12-15 03:41:00,
2013-12-14 22:46:00,66.9,66.0,29.80,SSW,212,9.1,12.7,97,0.13,RA,OVC,0.61,0.0,WeatherDisplay:10.37,2013-12-15 03:46:00,
2013-12-14 22:51:00,67.1,66.2,29.80,SSW,201,9.2,16.0,97,0.13,CLR,OVC,0.61,0.0,WeatherDisplay:10.37,2013-12-15 03:51:00,
2013-12-14 22:56:00,67.3,66.1,29.80,NW,309,8.4,11.5,96,0.13,CLR,OVC,0.61,0.0,WeatherDisplay:10.37,2013-12-15 03:56:00,
2013-12-14 23:01:00,67.3,66.1,29.80,SSW,213,6.6,16.1,96,0.13,CLR,OVC,0.61,0.0,WeatherDisplay:10.37,2013-12-15 04:01:00,
2013-12-14 23:06:00,67.3,66.1,29.80,South,172,5.4,11.5,96,0.13,CLR,OVC,0.61,0.0,WeatherDisplay:10.37,2013-12-15 04:06:00,
2013-12-14 23:11:00,67.2,66.0,29.80,SW,224,5.5,11.5,96,0.13,CLR,OVC,0.61,0.0,WeatherDisplay:10.37,2013-12-15 04:11:00,
2013-12-14 23:16:00,67.1,65.9,29.79,WSW,248,2.0,5.8,96,0.12,CLR,OVC,0.61,0.0,WeatherDisplay:10.37,2013-12-15 04:16:00,
2013-12-14 23:21:00,67.1,65.9,29.79,SW,220,4.3,6.9,96,0.12,CLR,OVC,0.61,0.0,WeatherDisplay:10.37,2013-12-15 04:21:00,
2013-12-14 23:26:00,67.0,65.8,29.79,West,272,2.1,6.9,96,0.02,RA,OVC,0.62,0.0,WeatherDisplay:10.37,2013-12-15 04:26:00,
2013-12-14 23:31:00,66.9,65.7,29.78,SSW,197,3.8,9.2,96,0.02,RA,OVC,0.62,0.0,WeatherDisplay:10.37,2013-12-15 04:31:00,
2013-12-14 23:36:00,66.8,65.6,29.78,WSW,239,6.9,10.4,96,0.02,,OVC,0.62,0.0,WeatherDisplay:10.37,2013-12-15 04:36:00,
2013-12-14 23:41:00,66.8,65.6,29.78,SW,232,3.9,6.9,96,0.01,CLR,OVC,0.62,0.0,WeatherDisplay:10.37,2013-12-15 04:41:00,
2013-12-14 23:46:00,66.7,65.5,29.78,South,174,4.0,8.1,96,0.01,CLR,OVC,0.62,0.0,WeatherDisplay:10.37,2013-12-15 04:46:00,
2013-12-14 23:51:00,66.6,65.4,29.78,SSW,205,1.7,6.9,96,0.01,CLR,OVC,0.62,0.0,WeatherDisplay:10.37,2013-12-15 04:51:00,
2013-12-14 23:56:00,66.6,65.4,29.78,SW,215,2.9,5.8,96,0.01,CLR,OVC,0.62,0.0,WeatherDisplay:10.37,2013-12-15 04:56:00,